Weather in Chiavari

Italy     44°18′54″N   9°19′24″E
temp.,
°C
wind,
m/s
gust,
m/s
humid.,
%
clouds,
%
prec.,
mm/h
press.,
hPa
HPBL,
m
7 may, fri
fri723:00+15s91387100 0.2 1011779
02:00+16s81187100 0.4 1008606
05:00+16ssw578618 0.1 1006282
08:00+16se578388 0.2 1007241
11:00+17e458118 0.0 1008266
14:00+17sse568175 0.1 1009386
17:00+17ese7977100 0.0 1008360
20:00+16ese7984100 0.0 1009226
8 may, sat
sat823:00+15ene4683100 0.0 1012153
02:00+15ne33763 0.0 101353
05:00+15nne4370100 0.0 101494
08:00+15ne337033 0.0 1017130
11:00+16wsw336616 0.0 1018264
14:00+17w336913 0.0 1019248
17:00+17w33685 0.0 1018247
20:00+17nne11745 0.0 101824
9 may, sun
sun923:00+16ne33775 0.0 101936
02:00+15nne33773 0.0 101994
05:00+14nne43754 0.0 1018121
08:00+15ne22705 0.0 1018142
11:00+16sw2266100 0.0 1018236
14:00+17se12635 0.0 1018195
17:00+17ese1266100 0.0 1017169
20:00+17ese227750 0.0 101729
10 may, mon
mon1023:00+16ne437770 0.0 101736
02:00+16n337721 0.0 101732
05:00+16ne338143 0.0 101640
08:00+16ene3378100 0.0 101672
11:00+17s12725 0.0 1016183
14:00+17se5976100 0.0 1016338
17:00+18se587581 0.0 1015325
20:00+16e798679 0.8 1014274
11 may, tue
tue1123:00+16e3584100 0.1 101595
02:00+16n4482100 0.1 101462
05:00+14nnw4492100 8.8 1013172
08:00+15ene5689100 26.3 1013238
11:00+14sse2396100 4.4 1012203
14:00+14se5897100 16.6 1010492
17:00+15se568897 5.7 1009270
20:00+15ese4488100 11.1 1007189